STARLINK-3116 (49146 NORAD) Tracking and Keplerian Element Data

This shows tracking and keplerian element data for the satellite.

Feedback or suggestion? Click here.




ElementValue
Catalog49146
NameSTARLINK-3116
Epoch Orbit373
Epoch Day287.91667824
Epoch Year2021
RAAN40.3144
Inclination70.0002
Eccentricity0.0003807
Argument of Perigee287.7705
Mean Anonmoly162.0445
Mean Motion15.69776718
Decay Rate-0.00035358
L11 49146U 21082S 21287.91667824 -.00035358 00000-0 -29529-3 0 9996
L22 49146 70.0002 40.3144 0003807 287.7705 162.0445 15.69776718 3737

Live tracking and technical data element details for STARLINK-3116 (NORAD 49146). STARLINK-3116 can be tracked NOW for your location showing map with azimuth and elevation plus other details from your city location.

Track the satellite on the map from your city or location and see movement details for azimuth, elevation, latitude, longitude, range, height, and movement on the map or in text.







IsCatalogInMostPopularTable: catalog: 49146, numindb: 5
Update: records affected: 1



GetName: 49146 STARLINK-3116

Hit Count: updated at: Sun, 17 Oct 2021 09:51:30 GMT